Delta Virtual Airport Information Service

Nassau Lynden Pindling International Airport

ICAO: MYNN Country: Bahamas
Latitude: 25.0389 Longitude: -77.4662
Latest Arrival : DAL4962931 (MUHA-MYNN) Latest Departure : DAL4962931 (MYNN-TFFF)


WX CaptureLIVE
Data provided by noaa.gov | Fetched at 09:13:16

METAR : MYNN 041300Z 19007KT 9999 BKN016 BKN200 28/26 A3001

TAF : MYNN 041030Z 0412/0512 13007KT 9999 FEW020 BKN200 PROB30 TEMPO 0414/0418 8000 SHRA FEW016CB SCT018 PROB40 0503/0506 14015KT 4800 TSRA SCT015CB BKN030


Runway Data for MYNN
Data provided by openaviationdata.com

Runway ID Mag Var Hdg Length Elevation Surface ILS Freq ILS Id ILS Slope
9 -6 95° 8318 ft 16 ft Asphalt -- -- --
14 -6 140° 11031 ft 16 ft Asphalt 110.1 IZQA 3
27 -6 275° 8318 ft 16 ft Asphalt -- -- --
32 -6 320° 11031 ft 16 ft Asphalt -- -- --

Nassau Lynden Pindling International Airport, Bahamas
Use only for reference purposes



Not for navigational purposes.